This demonstration page uses our WeatherBlox Daily Observations layout. Learn more.

Left ArrowRight Arrow

Hourly Observations for April 15, 2015

Temp ( °F °C ) Dew Point ( °F °C ) Humidity (%) Winds ( mph kmh ) Pressure ( in mb ) Visibility ( mi km ) Precip ( " mm )
12:53 am 00:53 Clear 48 8.9 31 -0.6 52 52 SE 13 20 30.02 1017 10 16 0.00 0.00
1:53 am 01:53 Clear 48 8.9 31 -0.6 52 52 SSE 13 20 30.01 1016 10 16 0.00 0.00
2:53 am 02:53 Clear 47 8.3 31 -0.6 54 54 SSE 10 17 29.99 1016 10 16 0.00 0.00
3:53 am 03:53 Clear 44 6.7 31 -0.6 60 60 SSE 6 9 29.98 1015 10 16 0.00 0.00
4:53 am 04:53 Clear 45 7.2 31 -0.6 58 58 SSE 9 15 29.97 1015 10 16 0.00 0.00
5:53 am 05:53 Partly Cloudy 44 6.7 32 0 63 63 SSE 10 17 29.96 1015 10 16 0.00 0.00
6:53 am 06:53 Partly Cloudy 44 6.7 32 0 63 63 SE 13 20 29.96 1015 10 16 0.00 0.00
7:53 am 07:53 Partly Cloudy 45 7.2 34 1.1 66 66 SE 15 24 29.96 1015 10 16 0.00 0.00
8:53 am 08:53 Sunny 52 11.1 38 3.3 59 59 SE 17 28 29.96 1015 10 16 0.00 0.00
9:53 am 09:53 Partly Cloudy 56 13.3 41 5 57 57 SE 17 28 29.95 1014 10 16 0.00 0.00
10:53 am 10:53 Cloudy 57 13.9 42 5.6 58 58 SSE 17 28 29.95 1014 10 16 0.00 0.00
11:53 am 11:53 Cloudy 60 15.6 42 5.6 52 52 SE 15 24 29.93 1014 10 16 0.00 0.00
12:53 pm 12:53 Cloudy 61 16.1 41 5 48 48 SE 16 26 29.92 1013 10 16 0.00 0.00
1:53 pm 13:53 Cloudy 62 16.7 43 6.1 50 50 SSE 17 28 29.90 1013 10 16 0.00 0.00
2:53 pm 14:53 Cloudy 63 17.2 44 6.7 50 50 SE 17 28 29.88 1012 10 16 0.00 0.00
3:53 pm 15:53 Mostly Cloudy 66 18.9 45 7.2 47 47 SSE 17 28 29.86 1011 10 16 0.00 0.00
4:53 pm 16:53 Cloudy 65 18.3 45 7.2 49 49 SE 20 31 29.85 1011 10 16 0.00 0.00
5:53 pm 17:53 Cloudy 63 17.2 48 8.9 58 58 SSE 17 28 29.86 1011 10 16 0.00 0.00
6:53 pm 18:53 Cloudy 62 16.7 47 8.3 58 58 SE 16 26 29.87 1012 10 16 0.00 0.00
7:53 pm 19:53 Cloudy 62 16.7 47 8.3 58 58 SE 13 20 29.86 1011 10 16 0.00 0.00
8:53 pm 20:53 Cloudy 61 16.1 48 8.9 63 63 SE 10 17 29.88 1012 10 16 0.00 0.00
9:53 pm 21:53 Cloudy 60 15.6 48 8.9 65 65 ESE 16 26 29.90 1013 10 16 0.00 0.00
10:03 pm 22:03 Cloudy 57 14 48 9 72 72 ESE 18 30 29.88 1012 10 16 0.00 0.00
10:53 pm 22:53 Cloudy 57 13.9 49 9.4 74 74 SE 18 30 29.93 1014 10 16 0.00 0.00
11:14 pm 23:14 Mostly Cloudy 55 13 48 9 77 77 SE 16 26 29.94 1014 8 13 0.00 0.00
11:53 pm 23:53 Cloudy with Haze 55 12.8 49 9.4 80 80 SE 14 22 29.93 1014 5 8 0.00 0.00

Powered by AerisWeather